Wind_Gust
9 8 7 5 3 3 8 15 11 12 8 8 5 5 17 3 8 10 10 9 13 3 3 6 7 10 11 12 11 12 10 8 7 21 14 15 10 16 18 19 19 18 19 18 16 16 15 20 22 22 21 21 21 21 20 20 20 19 19 18 18 18 18 18 18 18 18 18 18 19 19 19 20 19 18 18 18 17 17 18 18 18 19 20 19 19 19 19 19 19 19 19 19 19 20 20 19
7 8 4 3 4 4 5 4 11 4 9 5 13 3 13 7 3 9 10 8 9 8 9 16 20 18 19 18 17 8 11 13 7 9 13 12 15 15 17 21 21 22 18 17 15 15 14 18 23 22 22 22 21 20 20 20 20 20 19 18 18 18 17 17 18 17 18 18 18 18 19 19 20 19 19 18 16 17 15 17 19 19 19 19 19 18 17 18 18 18 19 18 18 18 18 19 18
5 9 7 8 8 10 6 7 14 6 7 14 15 16 6 9 12 15 5 8 6 9 14 16 10 7 7 4 11 8 4 8 13 13 18 15 22 13 16 18 18 20 20 18 18 15 14 16 22 22 23 22 20 21 21 20 20 21 19 18 18 18 17 17 17 17 17 17 17 18 18 19 19 19 19 17 17 17 16 16 18 18 17 17 17 17 17 18 18 17 18 17 17 16 17 17 16
2 3 4 6 7 10 6 9 6 15 11 13 11 11 12 13 12 8 6 5 10 10 9 8 11 8 6 15 9 6 11 8 6 13 26 19 13 19 18 17 18 18 16 18 18 15 12 17 21 23 24 23 22 21 21 21 19 20 19 18 18 17 16 16 16 16 16 17 17 17 18 18 19 19 19 18 17 16 15 16 16 17 16 16 16 16 15 17 17 17 16 16 15 16 16 16 14
4 4 5 9 11 7 8 10 8 10 17 16 14 10 12 8 13 4 5 7 8 4 8 7 15 7 6 10 5 6 5 8 7 5 21 12 15 17 18 17 18 18 16 16 17 15 13 21 20 21 22 24 22 21 21 20 20 19 19 18 18 16 15 16 16 16 16 16 16 17 18 18 19 19 18 18 17 17 16 16 15 16 16 16 15 14 14 13 14 15 16 15 15 15 15 15 14
5 6 6 6 7 8 12 7 7 11 11 11 8 14 7 8 4 3 8 7 8 5 3 3 12 8 12 8 8 11 8 10 9 8 13 14 18 19 20 17 19 18 15 14 15 13 14 19 18 20 22 23 22 21 20 19 20 19 19 19 18 17 16 15 15 15 16 16 15 16 16 18 18 18 18 17 16 16 15 14 14 14 14 14 13 12 12 12 13 14 15 15 15 15 14 14 13
4 9 13 9 5 11 11 8 10 9 17 10 11 15 7 9 3 5 8 12 4 6 6 7 19 16 18 10 13 10 6 9 11 11 6 18 18 19 18 18 20 18 16 15 14 13 15 17 17 18 20 22 22 21 21 19 19 19 19 19 18 18 16 15 14 15 15 15 14 16 16 17 17 17 17 16 16 15 15 14 14 14 13 13 13 13 13 13 14 14 13 14 15 14 13 12 12
3 5 6 7 9 7 6 5 9 11 13 13 8 8 16 12 5 7 5 2 8 6 4 9 7 17 6 4 11 8 12 8 14 17 20 19 18 16 16 18 22 19 16 15 14 13 19 17 17 18 21 20 21 21 20 20 19 19 19 19 18 16 16 15 14 13 12 14 14 15 16 16 17 17 17 15 15 14 14 14 14 14 14 13 13 13 12 12 12 13 13 13 14 14 13 13 13
8 12 3 11 6 10 5 8 12 7 13 7 14 13 14 12 9 7 7 7 4 5 10 6 5 13 9 14 11 4 11 12 18 20 20 20 18 16 17 17 22 20 18 15 14 13 13 16 16 17 19 20 20 20 19 19 18 18 18 18 18 14 14 13 13 13 12 11 12 14 16 16 16 16 16 15 15 14 13 13 13 13 13 12 11 12 12 11 12 12 13 13 14 14 13 13 14
5 5 6 11 9 8 5 13 4 11 11 8 11 19 16 12 9 9 9 5 10 8 7 7 6 14 16 17 11 5 11 16 20 21 16 16 18 14 13 13 16 22 18 16 14 13 13 20 17 16 17 18 19 18 17 16 17 17 17 17 16 14 14 13 12 12 12 12 13 14 14 15 15 15 15 15 15 14 13 13 13 13 13 11 11 11 11 12 11 11 12 12 12 13 13 13 15
8 11 6 9 4 8 12 11 9 9 7 9 13 20 18 16 11 15 9 8 8 14 4 17 16 19 14 11 9 5 9 15 21 19 16 17 16 15 16 13 15 18 22 17 14 12 14 15 20 16 15 17 16 14 15 16 17 16 16 16 15 16 15 13 13 13 13 14 14 14 13 14 14 14 15 15 15 14 13 13 12 12 11 11 10 10 10 11 10 11 11 11 11 12 11 11 14
7 5 5 6 9 14 10 9 7 12 11 7 16 14 7 11 7 10 8 12 9 8 15 11 23 22 17 15 13 10 9 10 14 19 18 16 18 14 15 15 17 15 16 16 13 11 12 13 13 18 18 17 15 16 14 16 16 16 15 15 14 14 13 12 12 13 13 14 13 11 11 13 13 14 14 14 13 14 12 12 12 11 11 10 9 9 9 10 10 9 10 10 11 11 11 12 13
8 4 8 8 9 4 5 3 10 5 10 12 11 12 4 6 9 18 10 14 13 14 11 7 26 8 15 12 15 13 13 8 11 17 16 16 17 15 14 16 14 14 15 14 13 12 11 10 11 11 14 18 17 16 15 16 16 15 14 14 14 14 14 13 13 14 13 13 13 12 12 11 12 13 12 13 13 13 12 11 11 10 10 9 8 8 8 8 9 9 9 9 10 10 11 12 12
11 13 12 11 3 4 6 7 3 6 11 13 4 8 14 12 10 12 14 12 16 21 8 18 18 14 18 19 18 18 16 12 15 14 15 16 16 17 16 15 15 16 13 13 13 12 11 10 10 9 10 10 10 14 16 17 16 15 13 13 13 13 13 13 13 13 13 13 14 13 12 12 12 11 12 12 12 12 12 12 11 10 10 9 7 7 7 7 8 8 8 9 9 10 11 12 11
7 5 8 6 6 2 7 10 8 7 15 6 7 9 20 9 9 8 21 18 9 4 17 10 18 16 22 26 22 23 21 17 16 17 17 18 17 16 15 15 14 14 13 13 12 12 12 10 10 10 10 9 9 8 8 14 16 15 14 14 13 13 12 14 14 13 12 12 12 12 12 12 12 11 11 10 12 13 13 12 11 10 9 9 8 6 6 6 6 7 9 9 9 10 12 10 10
9 9 7 8 9 7 12 8 4 4 22 1 6 10 13 15 7 11 9 18 15 11 14 19 7 10 16 15 14 26 22 20 18 19 21 19 17 16 17 15 15 13 12 12 12 11 11 11 10 10 10 9 8 7 9 8 14 16 15 14 14 14 14 14 13 12 13 11 12 11 11 9 9 8 10 8 10 11 11 9 11 10 10 8 7 7 6 6 6 7 8 8 9 11 12 11 11
4 11 6 7 11 7 10 11 10 11 11 8 10 11 19 20 7 7 7 16 29 10 10 7 7 5 18 10 25 28 21 20 20 20 19 17 15 13 13 14 13 12 10 10 10 11 11 11 10 10 8 9 8 7 7 8 11 15 13 15 14 13 14 14 13 13 11 10 8 8 8 8 7 5 5 3 8 6 7 9 10 10 10 9 8 7 5 6 7 7 7 8 10 11 13 12 13
6 10 9 9 10 7 10 13 14 5 8 10 17 10 11 12 8 11 20 17 15 14 14 12 21 17 21 25 25 25 22 22 21 23 19 18 15 15 14 12 13 12 12 11 11 10 11 9 9 9 8 8 8 8 7 7 7 10 6 6 7 11 12 12 10 6 9 3 9 9 7 7 7 5 4 6 6 3 5 8 8 8 8 8 7 7 5 5 7 7 8 8 11 12 14 10 9
10 8 10 19 10 14 8 7 8 7 10 12 13 11 7 7 4 8 17 7 16 19 13 17 21 22 22 24 25 25 22 22 21 22 23 22 20 18 15 14 12 13 13 10 11 10 10 9 8 9 8 8 7 5 6 5 7 6 5 5 5 8 7 7 4 5 7 7 8 6 7 6 5 5 2 3 3 4 2 8 8 8 7 7 6 6 6 5 6 6 7 9 12 13 11 9 9
10 12 14 15 8 8 6 8 10 7 8 15 13 16 12 7 4 5 12 12 7 25 26 21 23 26 24 23 24 23 22 20 21 22 23 21 19 19 17 17 15 11 13 11 11 9 10 9 8 8 8 7 8 7 7 7 6 6 6 6 6 6 6 7 6 6 7 7 7 6 5 5 5 5 7 9 8 4 4 6 7 6 7 7 6 6 8 7 8 8 9 10 8 7 9 10 9
8 11 19 10 10 10 11 10 14 13 3 8 8 11 10 7 8 11 16 20 6 7 23 32 28 27 27 27 23 23 22 20 20 20 19 17 14 14 15 15 16 13 11 10 11 11 10 9 9 9 8 8 8 9 8 7 6 6 6 7 7 6 6 6 6 6 6 6 6 6 4 5 5 5 4 5 5 3 3 5 5 4 4 5 7 5 6 6 7 6 7 7 6 8 8 11 10
11 17 5 6 4 6 13 11 11 8 6 5 7 12 13 8 5 16 24 23 23 28 20 21 33 34 35 30 28 24 22 22 20 20 20 19 18 16 13 12 9 9 11 12 11 10 10 10 9 9 9 8 7 7 8 10 10 6 6 6 6 5 6 6 6 5 6 5 6 5 4 5 5 6 5 5 4 2 2 3 5 5 5 4 5 4 5 6 6 6 7 6 6 7 7 10 9
15 10 5 6 9 12 6 8 8 2 7 7 10 8 9 3 7 10 7 8 10 14 12 19 28 29 25 27 30 25 23 22 20 19 19 18 16 15 16 15 18 16 15 13 11 10 11 9 9 9 9 9 8 8 8 8 7 6 6 6 6 6 4 5 6 6 6 5 5 4 4 2 4 4 4 3 1 2 2 3 3 3 4 3 4 6 6 6 6 6 6 6 6 6 7 8 10
13 19 2 6 6 12 9 15 13 10 6 14 9 10 12 5 11 5 6 9 12 17 21 23 23 22 24 24 23 24 22 21 19 18 19 21 21 22 21 20 15 12 13 13 11 10 11 10 9 9 9 9 8 9 8 8 6 6 6 8 4 7 6 5 6 6 6 6 4 4 4 4 3 2 4 4 4 1 3 2 3 3 3 4 3 4 7 6 6 6 7 7 8 7 6 7 7
10 13 4 9 6 10 12 14 14 12 13 10 7 9 8 5 9 5 7 10 15 20 23 25 24 22 20 21 21 18 19 18 18 18 16 19 21 20 15 14 15 14 14 13 11 12 10 11 10 10 10 10 8 9 9 8 7 6 5 5 6 8 5 5 7 6 5 6 5 4 4 6 5 4 3 5 4 5 2 2 3 4 3 4 3 5 4 7 7 6 6 8 7 7 7 7 6
12 10 5 8 11 10 10 11 11 13 12 5 5 6 7 12 14 13 7 12 16 22 24 24 24 24 21 19 19 18 19 20 19 21 26 25 21 20 17 18 16 16 15 13 12 11 10 10 11 10 9 10 10 9 8 9 9 8 7 5 5 6 5 6 5 6 5 6 5 5 4 4 5 6 5 3 3 6 6 4 3 4 5 5 3 5 5 6 7 7 6 7 8 7 7 7 4
5 6 11 13 15 8 7 9 12 9 8 5 6 4 11 8 10 6 8 16 20 24 25 22 23 21 20 19 18 19 22 21 23 23 22 23 24 23 20 15 13 12 14 13 11 11 10 9 9 9 9 10 9 9 8 9 8 7 6 5 4 4 3 4 4 5 4 4 5 5 5 5 3 5 4 4 5 5 5 5 6 4 5 6 4 6 4 6 6 6 6 7 7 7 7 6 5
5 7 4 7 10 8 10 9 14 5 12 8 12 12 4 8 4 16 16 18 22 27 25 25 21 19 21 20 19 18 18 18 21 25 25 23 21 16 14 16 14 13 17 18 14 11 10 9 10 8 8 9 9 8 8 7 6 6 6 6 4 4 3 2 3 3 3 2 3 4 5 4 4 4 5 5 5 5 5 6 6 5 8 7 5 5 5 5 7 7 6 6 6 6 7 5 4
5 3 6 10 7 14 5 11 11 7 14 9 8 9 4 6 9 13 19 20 20 23 27 25 22 18 20 20 19 17 20 19 17 14 16 16 14 15 16 12 15 14 10 12 12 12 12 10 11 8 7 7 7 8 8 6 7 6 5 5 4 4 2 3 3 2 4 4 3 4 5 5 4 5 5 5 5 4 4 5 6 7 7 8 6 6 6 5 5 5 4 3 5 5 5 5 2
5 2 6 6 7 11 12 5 5 6 13 14 12 9 11 10 11 15 19 22 22 21 21 22 18 19 19 16 18 17 16 15 12 12 11 12 10 11 14 11 12 10 11 8 10 13 10 7 8 7 6 7 6 6 6 6 5 6 5 5 4 4 3 4 5 4 6 6 5 5 5 5 6 6 7 5 5 5 5 6 6 7 7 7 7 6 8 7 7 7 7 5 6 4 4 4 4
8 6 3 8 3 14 8 9 7 9 10 11 8 10 11 9 12 16 18 24 28 24 21 20 18 18 16 16 15 15 14 11 12 12 11 11 9 9 12 12 12 11 11 9 11 10 9 8 9 7 7 6 7 6 6 5 5 6 5 5 4 4 4 4 4 3 4 5 4 5 5 6 6 7 7 8 7 6 6 7 8 8 6 6 8 7 8 8 7 8 7 8 7 8 6 5 5
4 10 13 7 9 13 13 5 11 15 10 10 12 7 12 8 16 17 16 21 21 25 20 19 18 18 19 21 16 14 13 12 13 11 12 12 9 11 13 12 12 12 12 10 10 9 8 8 8 7 7 7 7 6 6 6 5 5 4 5 4 4 3 5 3 5 5 4 5 6 7 8 8 7 8 7 9 7 8 10 9 7 6 6 6 6 7 10 7 8 9 7 9 12 10 11 6
8 11 6 7 5 10 8 3 10 14 10 3 10 12 10 3 10 20 22 19 19 24 20 19 19 19 21 24 26 17 14 14 13 14 12 14 8 10 13 13 13 12 11 11 13 10 10 7 8 7 7 10 7 7 6 6 5 5 4 4 4 3 4 6 5 4 5 5 5 6 8 8 8 8 7 7 8 9 8 10 9 7 5 6 6 7 8 8 9 12 10 11 11 14 11 13 11
12 6 14 8 9 6 9 12 5 6 6 7 5 14 10 12 16 19 13 17 24 22 21 19 19 18 17 19 18 16 14 13 15 14 13 11 9 11 12 13 12 12 11 11 11 10 10 8 7 7 8 9 9 6 6 5 6 5 5 4 3 3 4 5 6 6 6 6 5 6 7 7 7 7 7 7 8 10 10 10 9 7 5 5 6 6 8 6 7 8 12 11 12 14 10 13 16
12 9 9 6 3 5 8 11 5 7 3 10 7 12 7 12 17 18 23 24 24 23 25 24 20 21 22 20 18 15 15 14 13 13 14 13 11 11 13 12 13 12 10 11 11 8 8 7 6 7 8 7 7 7 7 7 6 6 5 5 5 4 3 4 4 5 6 5 6 7 7 7 8 7 7 8 8 9 10 9 8 7 5 6 6 7 10 9 7 8 11 11 11 13 14 14 16
11 10 11 8 9 8 7 11 6 12 5 5 7 12 7 12 16 18 19 23 24 21 20 18 19 20 22 18 16 16 16 14 12 14 14 12 10 13 14 13 12 11 11 11 10 10 9 8 7 6 7 7 7 7 6 6 6 5 5 7 7 5 5 5 4 6 6 7 8 6 7 7 6 7 7 7 8 9 8 8 8 6 6 7 9 9 10 9 9 8 10 11 11 10 13 12 11
14 7 8 8 8 8 6 7 9 5 8 9 10 8 11 17 19 20 22 18 15 20 23 20 22 22 20 17 17 18 15 14 15 15 14 13 13 12 12 12 13 11 11 11 11 10 8 9 8 6 6 6 7 7 5 5 4 3 3 3 6 6 6 4 5 6 6 8 7 7 7 8 6 7 6 5 7 8 8 7 7 8 7 9 10 11 9 9 9 9 9 8 10 10 11 11 11
9 7 6 7 6 8 8 7 7 9 9 3 8 9 11 22 16 20 19 22 21 22 20 21 23 19 17 21 22 17 15 15 17 16 14 12 13 13 12 13 13 13 11 10 9 9 9 9 8 7 6 6 5 5 5 5 5 5 4 5 4 5 6 7 8 7 6 6 5 6 6 6 7 7 6 5 6 7 8 8 8 9 9 9 10 10 9 10 9 9 9 11 8 11 13 9 8
8 9 5 6 9 6 11 9 5 2 5 5 6 10 4 8 10 17 26 28 30 26 19 26 24 19 18 18 18 18 18 17 16 16 14 15 15 13 12 12 12 11 12 10 9 10 9 8 7 6 7 6 6 6 5 4 5 5 3 3 2 5 5 5 5 7 6 7 7 7 6 5 5 7 6 5 7 8 8 8 9 9 9 9 8 9 8 10 9 11 10 13 11 9 11 8 10
12 7 10 13 6 8 10 10 4 6 9 10 8 13 4 5 6 6 12 12 14 25 24 26 20 25 24 21 19 22 18 18 18 16 16 14 13 14 13 13 13 11 10 10 9 9 9 9 8 8 8 5 5 3 3 4 2 2 3 3 3 5 5 6 6 9 11 11 12 10 11 10 7 7 6 7 6 5 8 9 9 9 10 9 9 10 10 12 10 10 11 11 11 11 11 10 12
6 9 8 7 6 4 9 6 5 2 6 12 14 14 5 9 11 10 9 20 24 28 24 23 26 25 16 18 16 13 18 18 19 18 15 15 14 13 14 13 14 12 11 11 10 10 12 11 11 10 10 9 7 6 5 4 6 7 6 6 6 5 5 9 12 12 10 8 10 13 13 11 11 10 8 7 7 9 8 8 9 10 10 9 9 11 11 12 11 10 11 12 13 14 13 14 9
11 7 10 10 6 6 5 6 6 10 4 7 13 10 14 8 7 13 10 12 15 22 23 18 14 24 20 17 16 15 13 13 16 16 17 17 16 15 15 16 15 14 14 12 12 13 13 12 11 10 10 10 10 8 7 10 10 10 10 10 10 10 11 11 13 12 12 12 11 7 9 11 11 11 10 9 8 8 8 8 8 10 10 11 10 11 11 10 10 11 13 13 11 11 15 12 14
11 18 14 9 8 6 3 4 6 4 10 7 4 17 19 7 13 14 13 14 14 22 21 17 16 17 19 12 15 15 16 17 17 16 17 17 17 18 16 16 15 16 12 13 13 14 13 13 12 12 11 10 10 9 8 10 11 11 10 10 8 7 8 7 4 4 7 8 8 11 10 11 12 12 11 11 10 9 8 8 9 11 11 8 8 9 9 10 11 13 13 10 13 13 11 14 14
17 7 18 11 7 7 4 5 6 6 6 11 3 14 18 13 19 11 16 18 19 17 17 21 16 18 16 21 17 12 14 16 17 18 16 16 16 17 18 14 14 14 12 14 14 13 14 14 14 13 11 11 9 9 13 12 12 9 10 9 9 8 7 6 6 8 6 7 10 11 10 11 11 10 10 10 9 10 9 9 10 11 11 9 10 9 10 10 10 12 12 12 12 11 12 19 16
13 6 16 13 13 9 6 5 5 4 3 16 8 4 15 19 13 15 20 19 17 21 21 23 20 23 17 16 14 15 13 17 16 17 16 15 18 17 16 16 12 13 13 15 13 13 13 13 13 12 13 11 10 11 13 11 10 9 9 8 10 6 5 5 4 6 7 8 10 10 11 11 11 10 10 9 10 10 11 10 9 9 9 9 10 9 9 10 11 13 12 12 12 14 13 14 14
6 14 10 10 9 9 12 10 7 6 7 17 16 12 20 12 7 18 20 21 27 26 20 23 25 27 23 24 16 18 14 17 15 16 17 17 15 15 13 14 14 13 12 12 12 13 12 12 13 14 12 9 9 10 10 10 8 8 10 8 8 7 6 6 6 8 8 8 11 11 11 12 12 12 11 9 11 12 11 10 10 10 9 9 9 9 10 10 10 12 12 12 15 15 10 10 14
7 13 12 6 6 7 5 7 10 7 13 30 17 14 17 18 16 23 27 31 28 25 19 19 22 22 22 19 16 18 15 20 18 16 16 16 14 15 13 17 14 12 12 14 13 12 11 12 12 13 10 11 12 12 11 10 9 9 9 8 8 8 7 6 9 12 11 11 13 11 11 11 11 11 11 11 12 13 12 11 12 11 10 10 10 9 9 10 11 12 12 12 11 11 10 10 12
17 17 13 12 5 6 6 4 5 17 26 21 11 19 10 21 11 15 11 15 26 30 28 27 28 25 24 18 17 16 17 21 19 17 16 17 15 13 14 16 15 14 13 13 12 11 11 11 12 13 12 11 10 11 12 11 11 10 9 8 9 8 6 9 10 10 11 12 11 11 11 11 12 12 12 13 14 15 14 13 14 12 13 12 12 10 9 10 10 11 11 11 11 11 11 11 11
15 12 16 20 16 16 18 10 17 28 33 10 11 16 8 22 12 17 16 21 27 28 30 31 29 24 17 22 20 21 17 24 20 17 17 17 17 17 14 14 13 12 14 11 12 11 10 11 11 14 12 11 12 12 13 13 13 12 11 10 8 8 10 10 11 12 11 11 11 11 12 12 12 13 14 14 15 16 15 15 15 16 15 14 12 11 10 10 12 11 12 13 12 12 12 11 10
21 22 23 24 22 23 22 19 17 13 13 4 5 15 21 9 8 10 21 20 30 29 23 21 25 25 23 24 20 19 17 25 20 16 17 16 16 15 13 14 12 12 12 12 10 10 10 11 10 14 13 10 11 14 13 14 13 12 11 11 10 10 11 11 11 11 10 10 11 10 11 11 11 12 14 14 14 14 14 14 15 17 16 15 17 17 15 13 12 13 12 12 12 11 11 12 15
19 9 20 17 20 31 27 23 31 21 13 10 5 17 19 9 9 13 11 15 17 22 21 17 18 19 19 19 19 19 17 20 22 16 16 16 15 14 14 14 13 12 12 11 10 10 10 11 12 14 15 14 14 14 14 14 13 13 13 13 14 12 12 13 13 13 14 15 14 13 13 13 14 14 13 13 14 15 14 14 15 17 18 17 17 18 17 16 16 14 11 12 12 10 12 13 14
13 13 13 15 30 15 16 14 11 10 9 8 9 18 7 8 11 10 14 20 20 21 24 22 18 19 24 22 22 18 18 20 21 19 13 12 14 13 12 12 15 13 11 10 10 10 12 11 13 15 15 14 15 15 14 14 13 14 14 15 15 15 14 14 14 15 14 14 14 15 15 14 14 13 13 15 15 14 15 16 16 19 20 19 19 20 19 18 18 16 16 16 14 12 13 13 13
19 19 30 31 11 13 11 4 3 8 10 13 8 11 9 5 6 10 17 21 22 23 24 22 20 18 20 20 19 18 18 15 17 22 14 12 13 11 12 12 14 13 12 11 10 9 11 13 15 16 17 16 16 15 14 14 14 15 14 15 15 15 15 14 13 13 12 11 12 13 14 15 14 15 15 14 15 15 15 15 16 19 19 18 19 20 19 19 18 16 17 17 17 18 17 15 14
20 26 23 9 11 12 13 14 6 9 18 20 6 10 11 13 16 10 18 21 19 23 26 23 21 19 23 21 18 19 21 16 16 18 16 12 12 13 13 12 12 13 12 11 10 9 12 14 15 17 17 17 15 16 16 14 14 14 14 15 14 13 13 13 13 12 12 13 13 13 13 15 16 15 16 15 15 16 16 17 16 17 17 17 18 19 20 20 19 17 18 16 16 18 17 16 16
26 25 13 28 20 19 14 13 11 12 17 17 11 10 10 14 14 17 21 22 19 22 22 25 24 23 22 20 20 18 18 17 17 17 16 13 13 14 13 13 13 12 11 11 12 14 15 14 16 18 17 16 15 15 13 14 13 12 12 13 12 13 13 13 13 13 13 14 16 17 16 15 14 15 17 16 17 17 17 16 16 16 17 17 17 18 18 18 18 18 18 17 19 19 18 17 17
12 12 21 15 14 19 19 24 11 16 9 10 11 11 21 20 14 22 27 29 26 26 26 23 21 18 19 20 21 19 17 17 18 15 13 14 14 13 13 14 14 12 12 13 15 15 15 15 18 17 16 16 16 15 13 14 12 13 13 13 12 12 13 14 14 16 17 18 18 18 17 15 16 16 15 15 16 17 18 17 17 16 18 18 19 18 19 19 18 17 17 19 19 19 19 19 18
15 18 15 19 26 9 15 9 14 15 20 15 18 19 22 12 14 20 27 31 35 36 32 27 24 22 20 19 22 21 17 16 15 15 14 14 14 14 15 14 13 13 13 15 17 17 13 16 17 16 17 15 15 12 11 11 11 12 12 12 13 13 14 14 15 16 18 17 17 17 16 14 14 17 15 15 15 16 16 17 17 19 19 20 20 21 21 20 19 20 21 19 19 20 20 20 19
15 18 18 19 21 16 27 20 11 13 19 19 22 27 11 9 7 24 21 21 27 25 31 28 25 23 23 22 19 21 20 14 15 14 14 15 15 16 15 14 14 16 16 17 16 16 16 17 16 15 15 14 13 12 10 10 9 11 12 13 13 12 13 15 15 16 16 15 15 16 16 15 16 15 16 16 18 17 17 17 17 18 20 20 21 21 20 20 21 21 21 20 20 22 20 20 19
Wind_Speed
6 5 4 3 1 1 2 6 0 2 2 3 1 1 5 2 2 3 1 5 5 0 1 2 3 4 1 4 5 7 4 4 3 9 5 1 5 7 12 13 13 12 12 10 9 9 9 15 18 18 18 16 17 16 16 16 16 15 15 15 15 14 14 15 15 15 14 14 15 15 14 14 14 15 15 14 14 14 14 15 14 14 15 15 15 15 15 15 15 15 15 15 14 14 15 15 15
4 5 3 1 1 1 0 1 3 0 3 0 6 1 7 3 1 1 1 3 2 2 2 2 6 9 12 12 10 4 5 6 2 0 3 4 6 6 12 14 14 14 11 10 9 9 8 11 18 18 18 17 17 16 16 16 16 15 15 14 14 14 14 14 14 14 15 15 15 15 14 14 14 15 15 14 13 13 12 14 15 14 14 14 14 14 14 14 14 14 14 14 13 13 14 14 14
3 5 4 3 3 4 2 3 2 1 3 7 6 7 3 4 7 1 3 4 2 2 2 1 2 4 4 2 7 2 1 1 6 3 4 7 9 6 11 12 12 13 13 9 10 9 7 10 17 18 18 17 16 17 16 16 16 15 14 14 14 14 13 14 14 13 14 13 13 14 14 14 14 14 15 14 14 13 13 13 15 14 13 13 13 13 13 13 14 13 14 13 12 12 13 13 12
1 1 0 3 0 4 2 3 4 8 4 6 4 5 5 8 0 1 2 0 5 1 2 2 4 1 4 7 3 3 6 3 2 7 6 8 1 9 10 11 12 10 9 9 9 8 6 12 17 18 18 17 17 17 16 16 15 15 15 14 14 14 13 13 13 13 13 14 14 14 14 14 14 14 15 14 13 12 13 12 13 13 13 12 12 11 12 13 13 12 12 12 11 12 12 12 11
1 1 1 4 4 1 2 2 3 4 8 5 6 4 7 3 2 2 2 2 4 3 3 1 2 4 3 5 2 1 2 5 4 1 5 4 7 9 10 11 11 10 9 9 9 7 7 16 17 17 17 17 17 16 16 15 15 15 14 14 14 13 12 13 12 12 13 13 13 13 14 14 14 14 14 14 14 13 13 13 12 13 12 12 11 11 10 10 11 11 12 11 11 11 11 11 11
2 1 3 2 0 2 5 1 0 6 6 4 3 4 3 1 3 1 5 5 5 2 2 1 2 1 3 2 1 4 2 2 4 4 4 7 12 12 12 9 10 10 9 8 8 6 7 15 15 16 16 17 17 17 16 15 15 14 14 14 14 14 12 12 12 12 13 13 12 13 13 13 13 14 14 13 12 12 12 11 11 11 11 11 10 9 8 9 10 11 11 11 11 11 10 11 10
0 4 5 4 2 4 5 3 6 5 9 6 3 5 2 1 2 3 5 6 1 3 1 1 4 2 5 0 3 3 2 3 4 4 3 11 12 12 11 10 10 11 10 8 7 7 9 13 14 15 16 16 17 16 15 15 14 14 14 14 14 13 12 11 11 11 12 12 12 12 12 13 13 13 12 12 12 11 11 10 10 10 10 10 10 9 9 9 9 9 9 10 11 11 10 9 10
1 2 1 2 1 1 1 2 5 5 5 7 3 4 3 0 1 1 3 1 3 0 1 5 3 4 0 1 3 3 8 5 8 11 13 11 12 11 9 9 11 10 9 9 7 7 13 13 13 15 16 16 16 16 16 15 14 14 14 14 13 13 12 11 10 10 10 12 12 11 12 13 13 12 12 11 11 10 10 10 11 10 10 10 10 10 9 9 8 8 8 9 10 11 10 10 10
4 6 0 5 2 2 1 4 5 3 6 3 7 6 7 4 3 2 4 3 3 1 4 4 1 2 1 6 4 2 4 7 10 12 13 13 12 10 7 9 12 10 10 8 8 7 8 12 13 14 16 15 15 15 15 15 14 14 14 13 12 10 11 10 10 9 9 9 10 11 12 12 12 12 12 11 11 10 9 9 9 9 9 9 9 9 9 8 8 8 9 9 9 10 10 10 11
2 2 1 2 4 4 1 6 1 5 4 4 5 9 5 2 2 5 5 3 5 3 3 4 4 4 5 8 3 3 3 8 13 14 10 10 10 9 8 7 9 13 10 9 7 7 7 15 14 13 14 15 14 14 14 13 13 13 14 12 10 9 10 10 9 9 9 10 10 12 11 11 12 12 11 11 11 9 9 8 8 8 8 8 9 8 8 9 8 8 8 8 8 8 9 10 11
0 5 2 3 1 3 6 6 5 5 3 4 7 11 10 4 5 3 6 5 4 5 1 5 6 8 3 4 3 2 4 7 13 13 11 10 9 9 9 7 8 9 12 10 9 7 7 8 16 13 12 14 13 11 12 12 13 12 12 12 11 11 10 10 9 10 10 11 11 11 11 11 11 11 12 11 11 9 8 8 7 6 7 8 8 8 8 8 8 7 7 7 8 7 8 9 11
1 1 1 2 3 7 5 4 4 6 7 2 6 1 2 6 4 2 5 7 3 4 6 6 6 8 8 4 2 4 4 4 8 13 11 9 8 8 9 8 10 8 9 11 8 6 7 8 8 13 14 13 12 13 12 12 12 12 12 12 11 10 10 10 9 9 10 11 10 9 9 10 11 11 11 11 10 9 8 7 6 5 6 6 7 7 7 7 7 7 6 7 8 7 7 9 10
3 2 5 3 3 1 2 1 5 3 4 4 5 0 1 3 6 9 6 7 4 5 3 4 13 3 4 3 3 5 5 4 7 11 11 9 9 8 8 8 8 9 8 9 8 7 7 6 6 6 9 15 13 13 12 13 12 12 12 12 11 11 11 10 10 10 11 11 10 9 8 9 10 10 10 10 10 9 8 7 6 4 4 5 6 6 6 6 7 6 6 6 7 8 7 8 9
4 6 6 3 1 2 3 3 0 1 5 3 1 3 3 3 4 6 6 6 9 9 2 10 8 8 6 7 5 6 5 6 9 9 9 11 8 9 9 9 9 9 8 8 8 7 6 6 6 5 6 7 6 10 13 13 12 12 11 10 10 11 10 10 10 10 10 11 11 10 9 9 9 9 9 9 9 8 8 7 5 5 4 4 4 5 5 5 5 6 6 7 7 7 9 9 9
1 2 3 1 1 1 3 3 5 4 6 1 1 4 6 4 3 3 10 7 4 0 6 4 5 7 6 11 7 8 8 11 11 11 10 9 9 9 9 8 8 8 8 8 7 8 7 6 5 6 6 5 6 5 5 9 13 12 11 11 10 11 10 10 11 10 10 10 10 10 10 10 9 9 8 8 8 8 7 6 5 4 3 3 4 3 4 4 4 5 6 7 7 8 9 8 8
4 4 3 2 3 4 4 4 1 2 6 1 2 5 5 5 2 3 4 5 4 2 8 5 0 1 5 6 6 11 14 12 12 11 11 11 9 9 10 9 8 7 7 7 7 6 6 6 5 5 6 5 4 4 5 4 10 12 11 10 10 10 10 10 10 9 9 9 9 8 8 5 6 5 7 5 6 7 7 4 5 3 2 3 2 3 4 4 5 5 6 7 8 9 9 8 9
2 4 0 1 6 4 3 4 4 3 5 3 4 7 5 8 4 2 1 8 15 5 6 3 0 2 8 4 15 15 14 13 14 12 11 9 7 8 7 8 6 6 5 6 5 6 6 6 5 5 5 5 5 4 4 5 7 11 9 11 10 10 9 10 9 9 8 7 6 6 6 5 4 3 2 1 5 4 6 5 5 3 2 2 3 4 4 5 5 5 6 7 8 9 8 8 8
2 2 3 5 4 4 4 5 5 1 1 5 8 3 5 8 3 1 5 9 9 9 9 6 10 8 9 12 15 14 13 14 13 15 12 11 7 8 8 7 7 7 6 6 5 6 6 5 5 5 5 5 4 4 3 3 4 7 4 4 4 6 8 8 5 3 5 2 6 6 4 4 3 3 3 4 3 1 2 4 4 3 2 1 2 3 3 4 5 5 6 7 9 9 7 5 4
3 1 2 9 4 5 4 3 5 2 5 5 7 0 3 4 1 1 6 3 9 10 7 8 12 13 14 15 16 14 13 14 14 14 16 15 11 11 9 8 6 7 6 6 6 6 5 5 4 5 5 4 5 4 3 3 5 4 4 3 3 5 4 4 3 3 4 5 5 4 3 3 3 2 1 1 1 2 1 2 3 2 1 0 1 1 2 3 4 5 6 7 10 8 4 4 4
4 5 6 7 4 4 4 2 4 3 5 8 9 4 4 3 1 1 3 4 4 12 12 9 13 15 17 15 16 14 14 14 14 14 15 14 12 9 9 9 7 6 7 5 6 4 6 5 5 5 5 5 5 4 4 4 4 4 4 4 3 3 4 4 4 4 4 4 4 3 3 3 3 2 4 6 5 2 2 3 2 2 1 2 3 4 5 4 6 6 6 7 5 4 3 3 4
1 2 6 3 5 3 4 5 7 8 2 4 4 5 5 2 1 2 5 6 1 3 7 19 17 19 18 18 15 14 13 13 14 13 13 11 9 5 5 5 7 6 6 5 6 7 6 6 6 5 5 5 5 4 4 4 4 4 3 3 3 3 4 4 4 4 4 4 4 3 3 3 2 2 2 2 3 2 2 3 3 2 1 2 3 2 3 3 3 3 3 3 3 4 3 3 3
4 7 2 2 2 2 5 4 6 3 4 1 4 8 4 2 1 6 8 4 7 7 12 3 18 23 23 20 17 14 14 15 14 13 12 10 10 9 7 5 5 5 5 6 7 6 6 6 5 5 5 5 4 4 4 4 5 3 3 3 3 3 4 4 4 3 4 3 3 2 1 3 3 3 2 2 2 1 1 1 1 2 2 2 2 1 2 2 2 2 3 3 2 3 3 2 2
4 2 2 4 4 4 1 1 2 1 2 4 6 4 3 1 0 5 4 0 5 3 4 12 12 13 16 16 18 17 16 15 13 13 12 11 11 10 10 9 9 9 7 7 6 5 5 5 5 5 6 5 5 4 4 3 4 3 3 3 3 3 3 3 3 3 3 3 3 3 2 0 2 1 1 1 1 0 2 2 2 1 1 0 1 2 3 2 2 2 2 2 3 1 3 3 3
4 3 0 3 4 7 3 5 6 5 3 6 3 7 5 3 4 1 3 4 1 8 13 15 15 15 16 15 12 14 15 14 13 12 14 14 14 14 12 10 7 4 5 6 4 5 5 6 5 6 5 5 5 6 4 4 4 4 3 4 3 3 3 3 2 3 3 3 2 2 3 2 1 1 3 3 2 1 2 2 2 2 1 1 1 1 3 3 3 2 3 3 3 3 3 3 3
5 4 2 4 3 5 6 5 4 4 5 5 5 6 4 4 4 3 3 4 6 11 15 17 16 15 14 14 15 13 13 12 12 12 11 11 9 7 5 4 4 4 5 5 5 4 5 5 6 6 6 6 5 5 5 4 3 3 2 3 3 3 2 2 2 3 2 2 2 2 2 3 3 2 3 3 3 3 2 1 2 2 2 2 1 1 1 3 3 3 3 3 3 4 3 3 3
4 5 1 4 6 6 4 4 5 5 3 3 1 4 4 4 7 6 5 8 9 14 16 17 17 16 14 13 13 12 11 13 13 14 10 6 7 8 8 6 6 7 6 6 6 5 4 5 6 6 6 5 5 5 4 4 3 3 3 3 2 2 2 3 3 2 2 2 1 2 2 2 2 3 3 2 1 3 4 3 2 2 2 1 0 2 2 2 4 4 4 4 4 4 4 3 2
2 4 7 8 8 5 3 2 3 0 1 4 4 2 1 4 3 1 5 11 13 15 16 15 15 14 13 12 11 12 14 14 15 8 10 9 10 10 9 7 7 6 7 7 6 6 5 6 6 6 6 7 5 4 4 4 4 3 3 3 2 2 2 3 2 2 2 1 1 2 2 3 2 2 2 2 2 2 3 3 4 3 2 0 1 1 2 3 3 3 4 4 4 4 4 2 2
2 2 1 4 6 5 6 4 7 0 4 5 6 4 1 5 1 5 9 12 14 18 17 17 14 13 13 14 12 12 11 10 8 9 13 12 10 9 9 8 7 7 7 6 5 4 5 4 4 4 5 5 5 4 5 4 3 3 4 3 2 2 2 1 1 1 0 0 1 2 2 2 1 2 2 2 2 2 3 3 3 3 4 2 1 2 3 2 4 4 3 3 4 4 4 3 2
1 0 2 5 4 4 2 3 2 4 3 3 5 3 2 2 1 3 12 13 14 16 18 16 14 11 12 13 11 10 12 10 8 7 9 8 6 8 10 8 7 8 3 4 5 5 5 4 4 4 4 5 5 4 4 3 3 3 3 3 2 2 1 1 1 1 2 2 2 2 2 3 2 2 2 2 3 2 2 3 3 3 4 3 1 4 3 3 3 3 3 1 3 3 3 3 1
0 1 2 3 3 5 8 1 2 4 2 7 5 0 5 6 3 8 11 14 15 14 13 14 11 11 9 9 10 10 9 9 7 6 6 5 4 6 8 7 8 6 5 3 6 5 4 4 4 4 4 5 4 3 4 4 3 3 3 3 2 2 1 1 2 1 2 2 2 2 2 2 3 3 3 3 2 2 2 3 3 3 3 3 2 3 3 3 4 4 4 3 3 2 3 2 1
3 1 1 2 1 5 3 1 1 4 3 7 4 3 5 6 3 8 9 15 19 15 14 13 11 11 10 7 5 1 6 6 8 8 7 7 4 6 7 7 8 6 5 5 7 5 5 5 5 4 5 4 5 4 4 4 3 3 3 2 2 2 2 1 0 1 2 3 2 2 2 2 3 4 4 4 3 3 3 3 3 4 3 3 3 3 4 3 4 5 4 5 4 3 2 3 3
0 3 5 2 5 6 8 3 4 4 0 3 7 2 6 4 6 10 8 12 12 14 13 12 11 10 10 12 9 4 3 7 8 7 8 7 5 7 8 8 8 8 7 5 6 6 5 5 5 5 5 5 5 4 4 3 3 3 2 3 1 1 1 0 1 2 2 2 2 2 2 2 3 3 4 4 5 4 4 5 5 3 4 3 3 3 4 5 4 4 5 4 5 4 3 6 4
3 5 2 2 3 4 4 2 5 4 3 1 4 4 1 0 2 11 11 11 8 10 12 11 10 11 11 10 12 9 4 9 8 8 8 6 3 6 7 7 7 7 7 6 6 5 5 5 5 5 5 6 4 4 3 4 3 3 2 2 1 1 1 1 1 2 2 2 2 2 2 2 3 3 4 4 5 5 4 5 5 3 3 4 3 4 5 5 3 5 5 5 6 4 4 7 6
3 1 4 3 5 2 2 6 3 1 2 2 1 5 5 1 10 8 5 12 1 8 11 11 10 10 10 9 9 9 6 7 8 9 8 5 3 6 7 8 8 8 6 6 4 4 5 4 4 4 5 7 5 4 3 3 3 3 2 2 1 1 1 2 3 3 3 3 3 3 3 3 3 3 4 4 4 5 5 6 6 4 2 2 3 4 4 3 4 4 6 6 4 3 5 7 7
4 4 4 1 0 1 3 2 2 2 1 4 2 4 5 2 9 11 12 11 17 12 8 11 12 14 13 12 10 7 7 6 7 6 7 5 6 7 6 8 8 7 6 6 5 4 5 5 4 4 5 5 4 4 4 4 4 3 2 2 2 2 2 2 2 2 3 3 3 3 3 3 3 3 4 4 4 4 5 6 5 4 3 3 3 3 4 3 4 4 6 6 5 5 8 7 7
6 7 5 3 4 2 2 5 3 2 2 2 5 6 4 4 9 8 9 9 12 12 10 8 10 12 11 10 9 7 8 8 7 8 7 4 6 9 7 7 7 6 7 6 6 5 5 5 4 4 4 4 5 5 4 4 3 2 2 3 3 3 3 3 1 2 2 3 2 2 3 3 3 4 4 4 4 4 5 5 4 4 3 3 4 4 5 4 5 5 6 7 6 5 7 6 6
9 4 5 5 5 2 3 4 5 3 1 1 2 5 6 10 12 12 13 10 6 9 13 9 9 11 12 6 7 10 9 9 10 9 6 6 9 7 7 7 7 7 7 7 7 6 5 5 4 4 4 4 4 4 3 2 2 1 1 1 1 3 2 2 3 3 3 4 3 3 2 3 3 3 3 3 3 4 4 4 4 4 3 3 4 5 6 6 6 5 5 4 6 6 6 6 6
6 5 4 2 2 3 3 0 5 4 1 1 2 6 7 11 8 10 9 10 13 12 10 2 5 4 2 12 9 10 9 9 12 10 8 7 9 9 7 6 7 8 7 6 6 6 6 5 5 4 4 4 3 3 2 2 1 1 1 1 1 2 3 4 4 4 3 2 2 2 2 2 3 3 2 3 4 4 4 4 4 5 4 4 4 5 6 6 5 5 5 5 4 6 5 5 4
2 4 3 3 2 2 6 1 3 2 1 3 0 5 3 3 1 5 11 14 7 5 6 8 4 7 5 6 9 11 10 11 11 11 8 8 8 8 6 6 6 6 6 6 6 7 6 5 4 4 4 3 2 3 2 1 2 2 1 0 0 2 1 2 2 2 3 5 5 5 4 3 3 3 3 3 3 3 3 4 4 4 4 4 4 4 5 6 6 6 6 6 6 4 5 3 5
4 3 2 2 1 3 4 2 3 4 2 4 3 6 2 2 1 3 8 6 8 12 11 13 10 5 8 5 8 10 10 12 12 10 10 9 8 7 7 6 6 6 6 6 6 6 5 5 5 5 5 3 3 1 2 2 2 2 1 0 2 3 3 2 3 6 7 7 7 6 7 6 5 4 3 3 2 3 4 5 5 4 4 4 4 5 5 5 6 6 7 7 7 6 3 4 6
1 4 4 3 0 1 3 0 2 1 3 4 7 6 2 1 3 2 5 6 10 9 12 7 7 9 2 3 8 8 9 9 10 10 10 9 8 7 8 7 7 6 6 6 6 6 6 6 7 6 5 5 4 4 3 3 4 5 4 4 3 2 2 5 6 6 5 4 5 7 7 7 7 6 5 4 4 4 4 3 4 4 4 4 4 5 5 6 6 6 6 7 6 6 7 3 4
3 3 6 6 3 3 1 2 2 2 1 3 5 1 3 3 3 7 4 4 7 6 12 5 2 10 7 3 7 8 7 7 9 11 10 8 9 10 9 8 7 7 7 7 7 8 8 7 7 6 6 5 5 5 3 4 5 5 5 5 5 5 5 5 6 6 5 6 6 4 6 7 7 7 6 6 5 5 5 5 4 4 5 5 4 3 5 6 6 6 5 6 7 6 6 6 5
6 7 7 6 5 3 0 3 1 1 2 1 1 8 4 3 5 6 4 6 8 3 8 8 6 6 11 4 1 6 7 8 9 10 9 8 10 10 9 8 8 9 7 7 8 9 9 8 7 7 6 5 5 6 5 5 6 6 6 6 5 4 4 4 2 2 3 3 4 6 5 7 7 7 7 7 6 6 5 5 5 5 5 4 4 5 5 5 6 6 6 6 6 5 6 8 8
4 4 10 6 4 4 1 3 2 1 2 5 1 3 3 2 6 4 8 8 9 7 5 6 8 10 11 13 9 7 7 7 8 11 9 9 10 10 10 8 9 8 7 8 8 8 9 8 8 8 6 6 5 5 7 5 6 5 6 6 5 4 4 3 3 3 3 3 5 5 5 6 7 6 6 6 6 6 6 6 6 6 6 5 6 5 5 5 5 5 6 6 6 6 6 7 7
3 4 11 8 8 5 3 2 1 0 2 7 4 0 1 4 3 8 10 8 8 10 10 8 12 13 12 8 7 7 8 8 10 8 9 9 10 11 9 9 8 7 6 8 7 7 7 8 8 8 8 6 5 5 6 7 6 6 4 4 6 3 3 3 3 3 4 4 5 5 6 6 6 6 6 6 6 7 7 6 5 5 5 5 4 5 5 6 7 6 7 7 7 6 6 7 7
3 9 5 5 5 4 5 3 1 2 1 7 8 4 4 4 2 9 9 7 10 10 10 10 14 15 14 15 9 9 9 10 9 8 8 8 9 10 8 9 8 7 7 8 7 7 7 6 7 8 8 5 4 5 6 6 5 5 5 5 5 4 3 3 3 4 4 4 6 6 5 5 5 6 6 6 7 7 7 6 6 6 6 5 5 5 5 6 6 6 7 8 8 9 5 4 4
4 9 7 4 2 3 3 2 3 2 3 14 4 4 4 3 6 11 13 10 9 9 8 8 9 13 13 13 8 7 9 12 11 9 9 8 9 10 9 10 9 8 7 8 8 8 7 8 8 9 6 6 7 7 7 7 6 6 5 5 5 4 4 4 4 4 4 6 6 6 5 5 5 5 6 6 7 8 7 7 7 7 6 6 5 6 5 5 6 6 7 7 7 7 6 5 5
12 4 5 7 4 3 2 1 1 4 9 5 4 7 6 6 3 6 4 9 16 17 17 15 15 17 13 12 9 4 1 12 12 9 10 11 10 9 9 9 8 7 7 7 7 7 7 7 8 9 8 7 7 7 8 7 6 7 6 6 6 5 4 4 4 4 4 4 4 5 4 5 6 5 6 6 8 9 8 8 8 8 7 7 7 6 5 5 5 5 5 6 6 6 6 6 6
6 7 9 10 4 3 3 1 4 10 8 1 2 9 2 8 4 8 10 14 16 17 16 18 17 16 11 13 13 13 7 10 12 10 10 10 10 10 9 9 8 7 7 7 7 6 6 7 7 9 8 7 8 8 9 9 8 8 7 6 6 5 5 4 4 4 4 4 4 5 6 5 5 6 6 7 9 10 8 8 9 9 8 8 7 7 6 6 5 6 6 6 6 7 7 7 6
8 8 9 10 5 7 6 6 0 3 3 2 3 2 3 2 2 2 11 13 19 19 14 13 15 16 14 14 12 10 6 11 11 9 10 9 9 9 8 8 8 6 6 7 6 6 6 6 6 9 8 7 7 9 9 9 9 8 7 7 6 6 6 6 6 6 5 5 5 6 6 6 6 6 7 7 8 8 7 7 8 9 8 9 10 10 9 8 7 6 6 6 6 6 6 7 6
8 2 8 7 6 5 7 5 10 6 5 3 2 4 5 4 2 6 6 5 5 6 9 10 11 12 12 11 11 12 9 11 13 6 6 9 9 9 8 8 8 7 6 6 6 6 6 6 6 8 9 8 9 9 8 9 8 9 8 8 8 7 7 6 6 6 7 7 7 7 7 7 6 6 7 6 8 7 8 7 9 8 9 9 9 9 8 9 9 8 6 6 5 5 6 6 7
4 4 6 5 10 6 4 3 4 2 2 1 1 3 0 1 3 6 4 9 10 11 12 11 10 9 8 6 8 9 6 11 13 10 7 7 9 8 7 7 9 8 6 6 6 6 7 7 8 10 10 9 9 9 9 8 8 8 9 9 8 7 6 6 6 6 6 7 7 7 8 8 7 7 7 7 8 7 8 7 8 8 8 9 8 8 8 8 8 8 8 9 8 7 8 8 7
5 7 10 8 5 6 5 2 1 4 3 3 1 3 2 2 2 4 11 12 12 12 11 12 12 12 11 6 1 9 7 6 10 12 8 7 9 7 6 7 9 8 7 7 6 5 7 9 10 11 10 9 10 10 9 9 9 10 9 9 8 7 7 7 7 8 7 7 7 7 7 7 8 8 7 7 8 8 8 8 7 8 9 8 9 10 9 9 9 7 7 8 9 9 9 9 8
6 7 8 4 4 6 4 3 1 1 5 4 2 4 3 4 3 5 11 11 12 12 12 11 12 12 13 12 3 2 7 8 7 11 11 7 8 8 8 7 8 8 6 7 7 7 8 8 10 10 10 11 10 11 10 9 9 9 8 8 7 6 6 7 7 8 7 8 7 7 7 7 8 7 7 7 8 9 9 10 8 8 9 9 9 9 9 9 9 6 7 7 7 8 8 9 8
14 9 4 8 3 6 2 3 1 2 4 3 3 3 2 6 4 7 15 13 12 15 13 14 15 13 13 11 13 9 6 6 5 8 10 7 7 8 8 8 8 8 7 7 8 9 9 9 10 11 11 10 10 9 8 8 8 6 6 6 7 7 7 8 7 8 8 8 9 9 9 8 8 8 8 9 9 9 9 9 9 8 9 10 9 10 10 9 10 7 9 7 8 9 7 8 9
3 8 9 4 4 3 4 5 3 6 2 1 4 4 5 7 4 9 13 18 17 16 17 15 14 11 11 10 11 11 11 10 11 9 6 5 6 9 8 8 9 8 8 8 10 9 10 9 11 10 10 10 11 10 8 8 6 6 7 7 7 7 8 8 8 9 9 10 10 10 10 10 9 8 8 9 9 10 10 10 9 9 10 10 11 10 11 11 10 8 8 8 9 10 10 9 9
4 7 6 3 3 1 6 1 3 4 6 4 2 4 4 4 6 11 13 19 21 21 17 15 14 14 13 13 12 12 10 9 9 10 9 8 8 9 9 9 8 8 8 9 10 11 8 9 10 10 11 10 10 8 7 6 6 7 7 8 8 8 9 8 10 10 10 9 9 9 9 8 8 10 9 8 9 9 10 10 10 10 11 11 12 12 11 10 10 11 11 11 11 11 11 10 10
5 7 6 8 7 6 10 8 3 3 5 3 4 8 1 4 1 11 12 13 17 17 20 17 16 15 14 13 12 13 12 9 10 9 9 9 9 10 10 8 7 9 10 10 10 10 10 9 8 9 9 8 9 8 6 6 6 6 8 8 8 7 8 8 9 9 9 9 9 9 9 9 10 9 9 9 10 9 9 10 10 11 11 12 12 12 12 11 11 11 11 9 10 11 11 11 10
Wind_Direction
326 329 313 320 22 92 54 0 316 311 69 231 259 213 254 239 275 338 296 338 336 280 243 348 115 129 144 203 138 117 61 154 196 138 215 227 140 135 130 134 134 138 137 133 132 130 138 130 127 125 123 120 119 118 115 113 113 113 114 117 118 116 114 113 112 113 113 115 116 117 117 118 119 116 112 111 110 106 106 106 105 104 105 102 101 101 102 100 95 92 89 87 86 85 84 88 92
323 330 336 353 290 46 317 115 97 326 35 17 246 130 246 283 5 209 327 283 219 322 15 103 89 96 70 81 120 121 49 32 272 192 91 97 107 118 134 135 138 139 136 132 131 132 139 133 127 125 123 122 122 119 116 115 115 116 116 117 118 115 113 112 110 111 113 115 116 116 117 116 115 112 110 108 105 103 103 105 104 102 101 102 102 102 102 102 100 95 89 87 86 85 86 90 91
334 359 2 28 28 68 101 33 257 149 158 229 257 221 309 300 238 31 333 280 257 193 109 350 98 65 58 69 44 22 180 86 105 92 101 134 124 144 136 133 135 134 133 129 134 137 137 135 128 126 125 124 123 122 120 119 121 121 120 120 121 117 114 113 110 112 116 115 115 117 116 115 112 110 107 105 105 105 103 103 102 100 97 98 99 101 102 101 100 97 94 90 90 94 95 93 93
12 49 113 64 169 25 61 31 94 138 179 218 270 254 236 240 124 161 321 19 158 127 343 352 50 332 106 68 134 94 84 121 74 126 129 159 102 134 133 128 128 127 125 130 136 137 134 136 129 127 128 126 126 123 122 122 122 122 122 123 122 118 115 112 109 114 116 117 117 117 115 114 111 110 107 107 102 101 102 100 99 99 100 100 98 97 97 101 103 101 101 100 99 102 102 100 94
53 313 93 90 110 351 112 188 151 126 217 187 212 257 235 242 128 349 307 294 264 254 351 47 70 7 71 119 156 98 213 94 134 262 114 80 117 128 125 126 126 125 124 129 131 130 134 133 131 128 128 128 126 124 124 122 122 124 125 125 124 117 114 115 115 117 117 118 117 115 115 113 112 110 109 104 97 94 95 92 95 96 92 89 87 86 87 91 100 107 107 104 104 102 98 95 90
44 40 353 87 198 180 59 92 228 206 224 166 210 244 245 249 132 15 314 311 264 182 223 73 144 225 20 359 87 100 170 161 145 75 121 132 131 131 126 123 122 121 122 120 127 126 133 132 130 129 129 127 127 127 125 124 124 127 127 126 123 119 118 117 117 116 117 115 116 116 115 114 111 107 103 96 92 93 91 91 93 98 99 99 99 98 93 95 98 101 105 107 101 97 94 92 87
303 36 355 35 23 55 178 166 211 210 259 164 214 245 158 145 144 7 334 351 340 66 27 79 97 110 91 204 47 69 301 164 129 119 101 129 123 127 129 124 122 119 119 123 124 125 133 129 131 130 127 127 128 130 129 128 130 130 130 127 124 122 121 118 118 117 118 117 115 117 117 111 105 103 101 96 92 89 89 90 94 94 97 98 96 92 92 90 88 92 99 103 104 103 99 93 87
63 116 304 106 204 58 208 206 243 161 270 180 239 267 263 198 147 16 295 65 292 28 342 116 84 99 169 339 117 337 22 35 94 103 121 122 119 117 123 127 123 120 122 123 125 132 133 127 129 129 128 127 129 133 134 134 134 132 129 128 126 123 124 123 119 117 115 118 118 118 119 112 107 101 97 95 91 88 91 89 89 88 89 86 84 84 85 88 91 95 100 105 108 107 101 91 84
358 82 290 83 158 36 59 220 244 237 278 298 276 246 268 250 246 241 272 244 301 210 160 148 74 76 234 55 45 348 44 75 95 112 119 119 122 120 128 136 131 129 128 126 126 127 124 128 128 130 129 127 131 135 137 137 136 133 128 127 124 118 120 118 122 121 117 116 120 118 114 111 107 102 97 91 89 87 85 89 89 89 87 89 90 94 99 100 104 109 110 106 107 106 99 91 88
32 84 250 152 124 212 326 284 155 234 224 234 250 266 257 209 216 190 220 279 218 152 174 75 105 119 132 95 107 360 88 106 108 113 109 112 118 121 124 126 129 130 127 126 125 123 130 130 129 129 130 132 134 138 138 137 137 135 132 127 124 118 121 114 111 122 122 122 119 119 119 115 110 105 102 99 97 98 97 98 94 91 90 92 96 93 94 99 102 108 108 102 93 90 92 90 93
177 12 147 101 72 203 211 267 256 300 262 282 274 247 242 243 209 206 194 226 192 165 175 118 55 122 114 92 56 22 100 118 120 120 122 118 118 121 118 114 117 128 130 127 124 125 128 129 130 131 133 135 134 131 133 134 135 135 134 127 128 128 126 113 110 123 126 126 121 121 120 116 116 110 106 105 104 102 100 98 102 102 99 89 91 93 92 96 103 108 108 104 95 87 85 87 95
61 77 34 124 194 171 232 210 266 271 280 297 276 248 209 201 161 193 222 214 218 182 167 165 168 129 90 111 110 117 103 84 116 122 125 120 114 112 116 115 125 121 121 122 123 122 125 128 131 135 136 132 127 129 131 133 134 138 138 136 132 131 126 119 116 112 120 123 118 119 122 121 114 111 111 108 108 105 103 103 103 106 96 93 89 87 92 97 105 109 104 98 94 87 83 85 95
121 111 87 97 224 155 209 294 255 270 322 263 228 232 186 151 185 205 200 195 187 140 216 200 136 139 111 129 106 122 113 115 120 120 120 127 126 122 116 116 114 117 119 119 120 123 121 122 123 126 131 131 128 129 133 132 135 141 144 140 137 135 130 126 119 117 106 97 107 111 112 118 120 112 110 110 109 108 103 102 101 95 92 93 87 85 88 93 99 98 94 89 86 87 83 79 94
118 177 132 214 71 152 149 223 320 351 290 254 229 291 331 285 226 204 148 162 191 178 181 148 129 117 92 114 140 157 143 130 122 111 109 120 117 118 118 115 118 121 118 118 120 116 115 115 118 120 124 125 133 132 133 132 137 142 144 143 140 138 133 132 122 115 110 112 113 112 113 118 115 110 108 108 107 109 105 102 102 99 93 84 88 84 80 81 86 87 85 80 75 79 81 79 88
153 151 85 123 220 78 245 160 223 188 258 347 267 5 330 258 206 202 173 167 197 189 110 85 149 122 194 164 169 180 153 139 125 119 116 117 118 120 119 116 116 114 115 117 115 119 115 110 107 115 121 118 115 116 125 136 138 140 141 147 144 141 137 136 128 124 122 125 121 121 119 119 119 115 112 111 114 110 111 104 98 86 73 69 71 73 65 63 61 70 74 69 69 70 76 78 81
151 85 87 163 246 171 260 199 171 99 256 254 294 327 334 328 171 133 237 158 149 127 125 157 317 155 162 166 140 138 141 131 125 120 121 125 117 112 115 119 114 114 115 117 115 113 114 114 116 119 118 118 113 118 126 133 139 138 140 139 143 146 143 137 131 131 133 129 128 125 126 120 115 120 123 122 124 118 108 112 104 95 70 46 45 50 44 35 39 43 53 57 63 70 78 83 89
70 79 92 82 248 158 252 178 151 225 253 276 289 12 12 328 309 63 264 133 128 135 62 28 322 17 138 124 141 124 133 126 125 123 121 117 112 111 115 120 120 117 116 113 114 125 123 122 125 117 118 119 118 117 122 127 140 139 138 139 145 148 147 140 135 140 138 137 130 117 80 62 52 40 61 98 120 115 127 128 115 106 78 38 30 30 18 20 22 27 31 43 57 73 79 75 96
67 161 124 241 195 169 213 192 190 199 307 304 336 355 348 333 19 39 44 49 88 79 72 71 54 61 97 115 116 118 128 125 125 128 126 124 127 122 122 126 128 132 126 124 120 131 131 133 127 121 116 121 116 105 111 123 124 123 119 133 137 145 145 142 136 135 132 78 106 72 71 67 55 50 29 51 43 88 123 137 137 129 134 84 27 12 11 3 10 12 17 30 56 74 67 46 48
130 131 136 234 169 238 162 201 228 341 289 295 294 47 353 291 144 345 91 128 115 85 80 86 100 99 100 115 118 124 130 129 134 135 139 140 138 136 134 131 131 129 130 137 141 143 142 133 130 127 128 121 108 104 108 97 96 100 104 111 120 134 131 111 93 99 64 81 76 80 81 85 79 62 8 68 112 94 32 209 148 155 138 91 52 354 358 354 355 5 5 30 55 61 57 48 54
221 125 227 239 208 243 209 223 273 214 268 300 314 321 17 301 336 49 117 143 124 135 127 114 128 128 129 127 125 130 135 131 134 139 143 143 143 137 137 140 141 145 145 151 149 139 143 143 138 135 132 123 121 125 104 101 103 108 111 97 84 87 91 102 89 88 73 84 98 85 77 70 60 31 39 29 30 38 1 355 224 153 50 8 355 23 7 4 357 6 13 32 53 55 46 53 64
258 145 212 230 205 213 260 208 235 262 260 274 304 306 346 324 248 108 153 93 305 278 213 157 155 145 140 137 134 136 139 134 134 140 140 137 134 127 142 148 153 154 154 146 149 155 151 144 139 137 130 129 128 132 120 108 111 108 101 101 103 94 93 90 87 84 89 86 85 71 71 79 67 46 29 22 35 50 12 357 5 33 54 78 30 12 3 349 7 349 349 25 60 76 64 45 64
119 218 163 204 113 202 257 239 246 246 249 313 312 331 296 322 64 131 172 171 205 213 197 202 147 146 146 144 141 140 139 137 138 139 138 137 143 150 155 150 143 152 159 162 164 150 151 146 144 134 128 127 127 128 126 146 130 116 110 123 106 87 94 96 91 88 104 96 102 100 70 79 84 59 32 19 24 76 124 110 33 20 27 3 1 343 329 336 337 345 343 349 30 99 115 119 104
216 285 233 239 232 239 230 235 201 142 311 311 313 269 1 134 217 153 136 3 262 153 101 124 134 138 128 130 140 142 139 138 138 143 143 148 162 168 170 169 166 167 172 169 157 154 145 139 141 135 134 132 131 129 127 133 128 130 122 126 120 94 96 104 84 82 87 99 115 131 119 65 41 73 87 76 10 62 203 193 183 146 153 172 298 310 312 322 326 334 337 328 325 103 129 140 155
224 244 269 278 218 239 253 275 273 288 294 273 241 306 283 139 127 300 69 318 84 97 115 126 125 128 132 131 132 131 133 132 144 153 161 166 172 177 172 167 165 149 154 154 160 152 150 153 145 141 139 141 143 148 142 144 135 135 154 151 119 145 126 109 104 105 107 115 124 119 121 108 107 41 312 305 218 173 233 237 193 183 198 227 189 288 310 321 326 330 327 319 322 324 115 132 157
220 256 263 273 261 235 245 262 302 283 271 259 265 278 299 168 151 104 45 75 93 110 121 127 128 128 126 131 132 128 129 131 143 163 174 172 166 134 108 100 126 145 151 158 157 153 157 155 144 144 150 152 145 149 158 141 140 132 127 109 132 160 84 103 121 121 113 129 141 155 148 140 138 156 237 275 325 297 281 245 201 230 197 237 141 316 337 306 319 326 317 316 315 322 341 123 157
214 217 226 281 276 273 269 314 266 267 272 204 286 294 353 139 102 63 121 117 117 125 125 131 131 132 134 134 133 135 136 147 155 167 164 87 95 133 142 147 153 156 161 156 157 163 160 152 150 150 150 142 147 149 142 139 145 139 123 117 163 127 107 114 130 123 137 145 167 196 210 165 164 178 200 227 246 281 297 312 285 241 239 280 116 325 282 282 294 322 318 311 314 317 323 330 104
170 188 213 231 255 299 296 226 300 21 225 206 204 262 234 283 56 262 127 132 133 133 130 132 134 132 131 133 138 142 147 154 166 139 90 121 145 159 152 153 161 149 154 167 169 167 164 156 157 153 150 153 141 149 147 127 140 139 112 103 101 93 117 115 103 115 140 154 191 222 232 230 181 173 172 190 218 238 265 281 284 312 301 322 120 216 209 234 249 250 273 286 295 301 297 302 309
234 221 273 274 280 276 258 309 278 241 293 197 194 215 281 300 33 169 143 139 143 138 139 141 140 133 135 141 144 147 143 159 143 127 145 153 158 154 152 158 148 145 165 171 170 156 154 154 143 142 140 141 142 141 154 141 127 123 113 100 89 71 86 89 104 84 61 243 211 227 246 242 241 177 183 203 217 230 239 250 276 303 285 246 129 242 263 227 241 249 232 229 251 258 277 287 277
257 159 294 289 350 305 289 214 243 155 245 156 150 68 326 336 316 167 137 142 145 142 143 145 142 137 140 147 149 143 158 158 150 149 158 153 149 151 147 148 145 154 148 164 157 152 150 139 126 128 133 131 134 137 123 110 112 108 108 112 112 95 75 52 342 342 295 292 291 270 268 254 250 251 241 245 258 221 234 242 253 255 267 289 129 237 278 279 271 280 285 275 246 258 297 317 12
52 67 146 344 2 320 275 256 150 141 252 166 138 137 271 264 274 154 146 141 143 145 145 144 141 137 147 150 143 155 154 143 140 138 139 140 118 145 141 140 143 137 139 129 147 152 130 106 109 112 119 117 123 112 109 106 110 109 101 94 108 92 82 18 316 304 298 307 301 271 273 276 288 289 296 281 228 232 219 236 243 250 250 262 261 237 243 264 290 297 270 257 258 236 259 245 270
185 251 70 204 149 261 285 146 34 148 225 172 118 172 273 275 266 160 154 148 149 151 148 145 137 139 147 110 34 318 125 121 126 116 118 131 136 141 133 130 136 140 138 145 158 136 123 118 126 117 120 117 125 107 100 108 105 102 100 114 126 125 134 127 140 278 244 262 281 291 287 290 290 288 284 276 258 236 245 245 235 244 238 227 222 222 247 236 241 247 240 260 270 282 307 278 237
16 107 248 328 164 278 294 281 174 156 314 195 93 190 234 252 193 164 155 152 150 143 147 145 142 139 128 120 140 266 318 109 118 122 132 151 147 143 140 141 135 145 148 144 139 134 118 119 119 117 117 112 97 99 97 91 105 98 111 132 110 134 112 257 249 262 285 295 287 297 296 292 292 285 275 264 267 254 253 258 250 216 210 203 224 212 232 248 232 241 249 246 268 256 284 268 223
353 168 277 195 142 251 352 284 218 202 104 329 163 200 88 251 181 44 36 22 331 154 144 142 140 134 132 153 153 170 222 127 129 138 144 148 143 145 141 132 135 136 137 139 140 129 118 122 124 117 104 89 79 91 83 88 93 95 89 69 123 121 172 219 230 202 222 236 242 252 262 277 286 280 261 254 253 260 257 262 266 236 189 196 203 211 223 242 248 255 258 227 215 250 232 261 268
246 5 163 206 163 224 247 296 307 131 111 175 33 117 215 218 112 118 129 136 301 271 152 150 146 148 144 155 161 147 174 134 137 143 144 136 138 134 131 130 122 130 143 135 149 135 131 124 112 116 102 111 119 97 97 96 89 88 77 62 59 137 231 220 215 200 206 220 213 231 236 241 249 248 249 246 249 258 261 264 280 282 260 220 209 197 224 218 221 218 256 268 245 196 239 249 254
157 129 133 278 48 179 211 150 267 99 70 147 54 94 212 109 127 162 172 174 163 207 181 165 155 149 156 165 149 155 147 127 122 119 124 127 112 120 119 123 128 137 139 139 145 122 110 101 107 109 99 97 92 106 97 93 94 78 69 48 351 291 255 250 218 225 222 215 213 218 220 223 237 235 236 238 248 254 264 264 265 278 277 273 265 261 256 240 234 229 240 257 247 219 243 237 246
159 150 165 156 152 216 190 248 285 187 133 120 142 156 156 144 137 173 177 200 176 188 178 186 163 147 156 151 146 163 120 115 118 122 128 107 110 122 124 132 134 133 131 133 130 113 106 100 100 94 98 97 103 87 88 71 67 44 10 347 350 351 338 324 294 250 270 273 281 246 244 242 237 239 230 229 235 257 261 265 272 286 286 275 267 265 265 262 260 249 242 245 248 229 223 244 246
148 108 117 169 179 276 287 286 270 334 83 242 170 147 154 167 163 180 182 184 208 190 180 185 177 145 153 145 153 127 113 120 125 125 126 119 115 119 122 126 126 117 124 131 137 130 121 121 119 103 105 117 110 111 86 89 81 59 328 313 294 292 296 313 322 339 339 310 308 301 273 262 250 250 243 212 240 254 259 263 266 276 277 282 281 279 270 264 251 249 254 234 252 253 231 220 235
132 134 128 162 163 206 241 226 336 332 155 290 80 117 170 175 177 178 169 181 194 192 191 122 272 132 138 132 147 121 112 114 120 128 123 115 115 121 117 116 118 123 124 117 111 110 112 111 105 102 96 88 81 98 106 112 103 152 161 204 211 255 2 16 351 16 337 313 298 288 275 261 258 254 263 239 253 249 265 275 271 271 265 255 263 269 278 276 274 260 253 260 228 250 260 193 204
71 122 130 112 268 258 291 296 304 302 76 279 56 118 228 240 206 174 175 187 186 195 109 160 218 355 67 137 133 116 119 122 131 127 123 114 109 106 106 103 108 109 110 108 108 107 102 95 82 67 61 77 81 97 110 137 180 172 164 222 150 356 74 38 13 326 3 18 19 6 343 320 292 283 259 247 243 251 257 265 265 261 255 268 269 257 260 270 267 262 255 259 273 222 241 196 178
177 95 102 165 241 134 258 314 337 360 91 214 154 100 328 323 54 83 35 53 72 59 44 60 64 145 181 225 125 123 118 131 135 131 123 110 101 106 105 102 102 99 98 96 95 90 78 75 82 78 75 76 86 135 154 185 167 152 152 116 109 112 72 30 45 36 28 25 24 10 18 7 352 328 322 289 263 246 262 277 272 265 273 268 276 281 277 259 255 251 250 252 248 267 234 236 193
154 162 133 168 129 218 147 153 313 341 28 105 92 47 337 347 152 147 80 74 76 75 66 43 105 70 332 132 110 118 127 135 129 126 118 115 116 112 105 98 92 95 97 96 93 87 81 82 78 77 74 70 52 55 60 69 72 57 55 57 66 68 43 38 41 29 22 21 26 19 9 10 9 2 349 336 316 300 288 284 296 303 309 310 295 274 279 278 272 262 262 257 240 245 260 244 219
151 226 170 182 181 222 290 354 59 21 26 278 134 11 278 271 256 197 101 84 80 115 114 136 115 105 64 71 139 119 118 126 131 124 123 116 107 96 92 95 89 87 86 87 94 91 92 78 75 77 68 60 55 51 56 85 74 79 67 59 46 48 50 28 38 19 9 22 17 350 11 18 16 11 5 356 346 332 326 320 314 309 312 304 302 303 295 288 284 280 260 260 266 241 240 255 258
148 237 175 167 162 178 69 351 72 33 142 259 49 180 262 322 226 194 121 109 104 139 149 143 116 111 113 85 264 143 140 130 123 114 114 107 113 106 105 103 101 94 97 97 92 94 92 92 85 78 75 67 62 60 45 65 74 73 74 85 90 91 92 50 33 14 28 21 17 26 17 19 20 13 3 2 355 343 333 326 317 310 301 302 300 281 277 274 273 272 271 260 254 250 236 252 252
209 204 165 143 129 155 208 98 104 206 254 302 129 146 184 284 247 149 136 126 129 133 165 141 129 126 134 167 177 155 139 133 116 115 116 110 111 112 109 108 103 107 112 103 97 96 96 97 88 76 72 66 55 72 66 55 75 71 79 75 72 66 71 72 23 32 29 28 34 30 25 26 18 16 5 360 0 356 350 343 335 326 323 311 306 288 271 269 272 272 274 278 262 250 248 249 261
212 186 156 170 159 175 152 120 95 195 40 280 317 74 166 244 270 138 146 137 140 152 166 168 143 146 149 155 179 150 134 127 111 114 121 123 120 118 119 104 100 101 100 100 100 98 93 86 84 83 72 60 49 47 77 75 69 66 64 76 82 43 45 43 26 23 29 15 40 23 30 22 17 8 7 3 1 2 359 348 336 331 329 325 320 312 301 293 290 295 295 290 289 263 243 240 239
241 159 145 139 148 154 148 129 166 313 41 259 235 185 195 284 228 152 159 160 157 166 176 175 157 160 163 162 195 161 144 132 123 119 120 116 120 109 107 105 98 100 99 98 94 91 87 91 89 82 76 67 61 58 57 56 73 85 76 57 72 68 44 42 41 36 28 20 39 24 14 17 8 10 0 5 5 3 360 359 355 346 336 326 323 313 310 304 296 292 295 301 303 306 300 287 248
128 124 97 73 92 94 41 66 107 57 268 246 198 174 156 270 221 175 171 190 144 157 174 174 160 166 170 169 153 169 148 130 127 127 125 122 110 109 115 107 111 102 95 95 93 87 85 81 81 77 72 68 55 50 52 55 50 54 71 73 69 62 51 53 54 38 22 37 38 17 12 1 11 12 1 5 8 1 1 2 358 354 351 344 331 322 316 310 307 303 302 301 299 298 295 281 250
139 149 117 96 28 48 38 352 50 174 248 266 128 177 157 207 287 203 149 136 165 169 173 180 173 175 175 147 131 101 240 133 127 132 130 122 115 112 112 110 105 101 93 86 85 83 85 88 90 82 61 57 55 53 55 49 49 46 46 50 54 46 44 56 62 56 34 53 44 30 9 14 16 6 6 6 8 360 2 3 1 358 1 352 342 328 320 315 310 302 297 296 298 291 286 280 272
163 115 127 145 185 98 207 51 201 211 211 350 313 131 68 246 209 187 170 161 170 180 178 177 173 168 150 141 153 145 194 139 128 138 139 135 131 128 120 119 116 110 105 96 94 93 87 84 86 89 73 60 56 54 55 49 46 40 34 38 34 34 37 38 42 44 24 44 40 38 23 18 14 11 5 7 4 359 360 8 6 6 2 355 349 345 336 329 326 318 311 305 299 303 302 301 287
168 158 154 153 143 175 195 219 259 323 283 265 157 276 266 247 281 260 179 179 178 177 177 165 167 160 145 154 150 142 175 148 128 147 144 136 131 125 124 123 114 108 104 106 107 100 95 91 88 88 81 66 64 62 60 59 53 46 42 40 36 36 40 36 33 30 20 30 30 37 31 22 15 16 3 11 357 354 1 9 17 8 4 2 8 0 353 345 339 328 324 316 312 301 294 290 284
194 88 153 170 159 167 193 186 198 213 206 316 299 118 235 120 240 325 274 175 108 118 133 151 151 147 138 142 137 140 170 147 130 133 123 126 125 123 125 123 112 107 106 102 101 102 99 96 89 81 77 68 72 68 63 61 54 47 43 42 39 36 36 34 32 28 27 30 25 29 26 23 19 9 8 3 359 353 1 13 18 7 6 8 11 4 355 354 350 336 334 324 314 300 298 293 292
195 149 77 122 211 133 130 199 126 185 131 50 221 200 170 181 281 291 114 109 106 113 110 114 95 82 79 86 135 138 164 140 128 127 126 121 121 120 124 126 115 113 113 106 102 106 99 90 81 78 78 75 73 69 63 61 56 52 43 43 38 37 34 34 32 27 30 32 32 29 26 23 18 7 7 2 4 360 0 12 17 11 7 8 4 360 358 357 348 350 350 344 339 339 324 315 306
205 125 194 200 129 92 99 50 71 105 64 248 144 330 233 252 316 97 120 116 123 121 124 117 117 117 113 76 115 148 141 121 132 132 120 122 115 113 122 117 110 110 104 98 94 90 86 82 81 78 76 71 69 67 64 59 56 52 43 43 39 36 36 35 31 27 23 28 33 30 29 25 19 17 8 6 5 6 3 6 17 12 10 6 5 6 358 355 353 356 349 345 350 344 334 325 313
115 191 207 102 99 111 126 192 353 75 170 241 92 205 140 109 271 149 124 125 133 132 132 129 131 140 144 139 99 355 130 117 128 121 116 117 114 120 110 100 98 97 102 95 81 72 75 86 87 82 75 71 64 63 58 54 53 51 44 41 36 37 36 34 33 30 23 26 25 24 22 23 19 14 14 7 6 9 6 6 2 12 4 3 4 1 359 357 353 353 349 345 338 336 332 330 324
181 193 163 138 191 210 291 99 173 144 190 266 305 232 252 190 208 155 138 131 131 135 144 148 149 153 150 133 131 126 88 83 78 95 109 117 122 108 100 101 95 93 82 83 82 83 88 85 82 82 79 74 72 67 64 57 54 55 50 41 36 32 32 33 31 32 30 29 26 21 21 17 15 14 12 9 11 10 5 1 357 5 4 359 358 360 357 356 356 349 348 338 339 338 333 326 323
62 114 160 190 120 183 114 194 168 113 212 66 292 125 242 188 182 175 152 141 151 152 155 155 147 139 136 136 136 129 129 139 132 111 96 107 103 103 108 102 94 90 90 87 89 87 85 88 88 86 79 75 71 66 63 61 51 55 49 44 38 35 36 37 38 38 38 34 30 25 20 18 15 12 12 10 13 14 9 3 2 6 4 3 1 0 359 354 350 348 341 338 338 338 331 324 321
136 154 181 178 209 234 116 30 129 159 166 192 178 284 247 211 162 163 169 156 162 161 158 155 155 148 144 145 141 136 138 134 123 121 129 125 117 107 95 89 89 90 90 89 91 91 90 85 81 79 82 77 72 68 65 59 54 49 50 46 41 37 35 38 41 42 42 37 33 29 24 17 14 18 7 8 11 14 11 8 9 11 9 7 4 2 360 354 353 347 343 340 339 339 335 328 325
162 156 190 187 135 106 155 222 47 101 107 201 166 242 297 271 220 163 174 173 165 167 158 156 151 147 145 144 146 142 137 129 126 129 130 127 114 98 92 91 94 93 91 90 89 91 88 84 85 84 79 72 77 65 63 60 56 55 53 46 41 38 38 37 41 38 37 33 30 29 21 18 24 12 10 7 16 15 15 14 15 13 11 8 5 1 356 353 349 344 341 339 336 335 331 326 326